FLOCK 4H 31

导读

FLOCK 4H 31是由美国行星实验室研发的“鸽群”(Flock)系列遥感卫星,于2025年11月28日发射升空。该卫星延续了鸽群系列小卫星低成本、高覆盖的设计特点,运行在近地轨道,主要承担对地观测任务。它能提供高分辨率光学遥感影像,可广泛应用于自然资源监测、土地利用管理、灾害应急响应、生态环境变化检测等领域,补充了全球遥感卫星观测网络,为地球科学研究和商业遥感应用提供持续的数据支撑。

Basic Information
目录编号:
66734
目录名称:
FLOCK 4H 31
国际标识:
2025-276BW
轨道中心:
EARTH
卫星名称:
FLOCK 4H 31
卫星全名:
FLOCK 4H 31
卫星状态:
在轨 (已飞行281 天)
发射日期:
2025-11-28 UTC
国别 :
美国 (US)
星等 :
--
Orbit Information
数据来源 国际轨道数据
星历时间: 2026-09-05T19:33:05+0800
6小时前
查看轨道信息
半长轴: 6882.507km
偏心率: 0.000541
轨道倾角: 97.411°
近地点辐角 98.588°
升交点赤经 320.492°
平近点角 261.597°
近地点: 500.646km
远地点: 508.094km
周期: 94.706分钟
每日圈数: 15.204873
Detailed Information
使用方式:
暂无
2D Orbit Map
3D Orbit Map
Orbit Altitude Analysis Chart
Orbit Inclination Analysis Chart
Orbit Comprehensive Analysis Chart
View Comprehensive Chart
Conjunction Data List
Event ID Objects TCA Miss Dist (km) Collision Risk Probability Collision Risk Index (CRI) Action
CDM_260906-071306-673406-901322
CAS500-2 (69013)
2026-09-06T
07:13:22+0000
0.566 km
远距离
1.546301E-4 高风险 0.79
CDM_260906-084806-673406-901322
CAS500-2 (69013)
2026-09-06T
08:48:08+0000
0.809 km
远距离
5.565663E-5 中风险 0.7
CDM_260906-053806-673406-901322
CAS500-2 (69013)
2026-09-06T
05:38:35+0000
1.733 km
极远距离
4.315113E-6 低风险 0.48
CDM_260906-102206-673406-901322
CAS500-2 (69013)
2026-09-06T
10:22:55+0000
2.004 km
极远距离
2.881491E-6 低风险 0.44
CDM_260907-012306-673406-901322
CAS500-2 (69013)
2026-09-07T
01:23:17+0000
2.183 km
极远距离
2.341486E-6 低风险 0.42
CDM_260906-234806-673406-901322
CAS500-2 (69013)
2026-09-06T
23:48:30+0000
2.345 km
极远距离
2.006904E-6 低风险 0.41
CDM_260907-025806-673406-901321
CAS500-2 (69013)
2026-09-07T
02:58:03+0000
2.667 km
极远距离
1.591491E-6 低风险 0.39
CDM_260906-040306-673406-901322
CAS500-2 (69013)
2026-09-06T
04:03:49+0000
2.949 km
极远距离
1.383087E-6 低风险 0.38